Regional Weather Roundup
Issued by NWS State College, PA

Home | Current Version | Previous Version | Text Only | Print | Product List | Glossary On
Versions: 1 2 3 4 5 6 7 8 9 10 11 12 13 14 15 16 17 18 19 20 21 22 23 24 25 26 27 28 29 30 31 32 33 34 35 36 37 38 39 40 41 42 43 44 45 46 47 48 49 50
230
ASUS41 KCTP 022010
RWRCTP

REGIONAL WEATHER ROUNDUP
NATIONAL WEATHER SERVICE STATE COLLEGE PA
400 PM EDT MON MAY 02 2016

Note: "fair" indicates few or no clouds below 12,000 feet with no
significant weather and/or obstructions to visibility.

* = STATION THAT DOES NOT REPORT PRECIPITATION /E.G. RAIN...SNOW...ETC/
    THUNDER OR FOG.

PAZ002>004-007>009-013>016-020>023-029>032-022100-
WESTERN PENNSYLVANIA

CITY           SKY/WX    TMP DP  RH WIND       PRES   REMARKS
ERIE           CLOUDY    49  41  74 N8        30.02R
MEADVILLE      CLOUDY    47  44  90 N6        29.97F
FRANKLIN*      CLOUDY    54  46  76 NW7       29.98R
NEW CASTLE     CLOUDY    54  47  77 N7        29.96F
BEAVER COUNTY  CLOUDY    55  48  76 N7        29.95S
BUTLER*        CLOUDY    59  48  67 N7        29.96S
PITTSBURGH INT CLOUDY    63  50  62 N14       29.91F
PITTSBURGH     CLOUDY    66  52  60 N15G21    29.89F
INDIANA*       MOSUNNY   66  54  63 NW10G16   29.94R
LATROBE        CLOUDY    68  57  68 N10       29.90S
WASHINGTON CO* CLOUDY    64  54  68 N12       29.91F
$$

PAZ004>006-010>012-017>019-024>028-033>037-041-042-045-046-049>053-022100-
CENTRAL PENNSYLVANIA

CITY           SKY/WX    TMP DP  RH WIND       PRES   REMARKS
BRADFORD       CLOUDY    54  47  77 NW9       29.95R
DUBOIS         PTSUNNY   60  47  61 NW9G18    29.92R
CLEARFIELD     CLOUDY    68  49  50 W12       29.91R
JOHNSTOWN      PTSUNNY   66  50  56 W13       29.90S
ALTOONA        MOSUNNY   72  52  49 W13       29.88S
STATE COLLEGE  MOSUNNY   72  50  46 NW9G20    29.88R
WILLIAMSPORT   PTSUNNY   63  54  72 SE5       29.87F
SELINSGROVE    PTSUNNY   63  58  83 N3        29.87S
FT INDIANTOWN  CLOUDY    58  58 100 E5        29.89F
CAPITAL CITY   SUNNY     65  57  75 E7        29.87F
HARRISBURG     MOSUNNY   65  57  75 CALM      29.86F HAZE
YORK           MOSUNNY   74  63  68 VRB5      29.85F
$$

PAZ038>040-043-044-047-048-054-055-060>062-067>071-022100-
EASTERN PENNSYLVANIA

CITY           SKY/WX    TMP DP  RH WIND       PRES   REMARKS
SCRANTON       CLOUDY    58  52  80 W6        29.90R
MOUNT POCONO   CLOUDY    55  51  86 W13G18    29.89S
ALLENTOWN      CLOUDY    59  52  77 CALM      29.90F
QUAKERTOWN*    CLOUDY    57  54  88 CALM      29.91F
READING        CLOUDY    61  53  75 VRB3      29.89F
LANCASTER      MOSUNNY   65  59  81 SE5       29.87F
COATESVILLE    CLEAR     63  63 100 SW5       29.90F
POTTSTOWN      CLOUDY    59  54  83 CALM      29.91F HAZE
BLUE BELL      CLOUDY    57  54  88 CALM      29.89F
DOYLESTOWN     CLOUDY    57  52  83 VRB5      29.89F
WILLOW GROVE   NOT AVBL
NORTH PHILA    CLOUDY    61  53  75 VRB3      29.92F
PHILADELPHIA   CLOUDY    61  54  77 CALM      29.91F
$$




USA.gov is the U.S. government's official web portal to all federal, state and local government web resources and services.